| time (UTC) | temp F | wind direction | speed knots | gust knots | rain 1hr in | rain 24hr in | rain mn in | humidity % | barometer mb |
| 20260508225044 | 64 | 296 | 1.7 | 10.4 | 0.00 | 0.00 | 0.00 | 44 | 1010.8 |
| 20260508224537 | 64 | 277 | 4.3 | 10.4 | 0.00 | 0.00 | 0.00 | 43 | 1010.7 |
| 20260508224057 | 64 | 294 | 4.3 | 9.6 | 0.00 | 0.00 | 0.00 | 43 | 1010.8 |
| 20260508223553 | 64 | 271 | 2.6 | 15.6 | 0.00 | 0.00 | 0.00 | 42 | 1010.9 |
| 20260508223027 | 64 | 290 | 8.7 | 15.6 | 0.00 | 0.00 | 0.00 | 42 | 1011.0 |
| 20260508222542 | 64 | 281 | 7.8 | 13.9 | 0.00 | 0.00 | 0.00 | 42 | 1010.9 |
| 20260508222042 | 64 | 280 | 7.8 | 14.8 | 0.00 | 0.00 | 0.00 | 42 | 1010.9 |
| 20260508221533 | 64 | 273 | 7.0 | 15.6 | 0.00 | 0.00 | 0.00 | 42 | 1010.9 |
| 20260508221031 | 64 | 231 | 7.8 | 15.6 | 0.00 | 0.00 | 0.00 | 41 | 1010.8 |
| 20260508220524 | 64 | 256 | 7.0 | 14.8 | 0.00 | 0.00 | 0.00 | 41 | 1010.8 |
| 20260508220105 | 64 | 255 | 9.6 | 17.4 | 0.00 | 0.00 | 0.00 | 41 | 1010.8 |
| 20260508215557 | 64 | 236 | 7.0 | 17.4 | 0.00 | 0.00 | 0.00 | 40 | 1010.8 |
| 20260508215030 | 65 | 247 | 7.8 | 16.5 | 0.00 | 0.00 | 0.00 | 40 | 1010.8 |
| 20260508214528 | 65 | 281 | 9.6 | 17.4 | 0.00 | 0.00 | 0.00 | 40 | 1010.7 |
| 20260508214027 | 65 | 256 | 7.8 | 17.4 | 0.00 | 0.00 | 0.00 | 40 | 1010.7 |
| 20260508213559 | 65 | 213 | 10.4 | 15.6 | 0.00 | 0.00 | 0.00 | 39 | 1010.7 |
| 20260508213041 | 65 | 228 | 7.8 | 15.6 | 0.00 | 0.00 | 0.00 | 39 | 1010.6 |
| 20260508212531 | 65 | 248 | 7.8 | 15.6 | 0.00 | 0.00 | 0.00 | 40 | 1010.7 |
| 20260508212026 | 65 | 240 | 6.1 | 15.6 | 0.00 | 0.00 | 0.00 | 39 | 1010.7 |
| 20260508211541 | 65 | 240 | 7.0 | 15.6 | 0.00 | 0.00 | 0.00 | 39 | 1010.6 |
| 20260508211037 | 65 | 221 | 7.0 | 15.6 | 0.00 | 0.00 | 0.00 | 39 | 1010.6 |
| 20260508210531 | 65 | 245 | 7.0 | 13.0 | 0.00 | 0.00 | 0.00 | 39 | 1010.8 |
| 20260508210026 | 65 | 250 | 6.1 | 11.3 | 0.00 | 0.00 | 0.00 | 39 | 1010.8 |
| 20260508205544 | 65 | 256 | 4.3 | 11.3 | 0.00 | 0.00 | 0.00 | 40 | 1010.6 |
| 20260508205038 | 65 | 238 | 6.1 | 11.3 | 0.00 | 0.00 | 0.00 | 39 | 1010.6 |
| 20260508204535 | 65 | 237 | 5.2 | 13.9 | 0.00 | 0.00 | 0.00 | 38 | 1010.7 |
| 20260508204030 | 65 | 254 | 7.8 | 15.6 | 0.00 | 0.00 | 0.00 | 37 | 1010.7 |
| 20260508203547 | 65 | 224 | 7.8 | 20.0 | 0.00 | 0.00 | 0.00 | 37 | 1010.8 |
| 20260508203103 | 66 | 262 | 9.6 | 20.0 | 0.00 | 0.00 | 0.00 | 36 | 1010.8 |
| 20260508202538 | 66 | 260 | 8.7 | 15.6 | 0.00 | 0.00 | 0.00 | 36 | 1010.8 |
| 20260508202032 | 66 | 251 | 7.0 | 15.6 | 0.00 | 0.00 | 0.00 | 37 | 1010.8 |
| 20260508201525 | 66 | 229 | 5.2 | 14.8 | 0.00 | 0.00 | 0.00 | 37 | 1010.7 |
| 20260508201106 | 66 | 219 | 9.6 | 14.8 | 0.00 | 0.00 | 0.00 | 35 | 1010.7 |
| 20260508200542 | 66 | 271 | 6.1 | 13.0 | 0.00 | 0.00 | 0.00 | 37 | 1010.8 |
| 20260508200040 | 66 | 211 | 5.2 | 13.9 | 0.00 | 0.00 | 0.00 | 37 | 1010.8 |
| 20260508195540 | 66 | 243 | 6.1 | 11.3 | 0.00 | 0.00 | 0.00 | 38 | 1010.8 |
| 20260508195035 | 66 | 248 | 5.2 | 11.3 | 0.00 | 0.00 | 0.00 | 38 | 1010.9 |
| 20260508194531 | 66 | 243 | 5.2 | 15.6 | 0.00 | 0.00 | 0.00 | 36 | 1011.0 |
| 20260508194026 | 66 | 244 | 9.6 | 15.6 | 0.00 | 0.00 | 0.00 | 34 | 1011.0 |
| 20260508193543 | 66 | 266 | 7.8 | 18.2 | 0.00 | 0.00 | 0.00 | 35 | 1011.0 |
| 20260508193101 | 66 | 296 | 8.7 | 21.7 | 0.00 | 0.00 | 0.00 | 34 | 1010.8 |
| 20260508192534 | 66 | 223 | 13.0 | 21.7 | 0.00 | 0.00 | 0.00 | 33 | 1011.0 |
| 20260508192028 | 66 | 232 | 7.8 | 14.8 | 0.00 | 0.00 | 0.00 | 36 | 1011.0 |
| 20260508191542 | 67 | 257 | 5.2 | 12.2 | 0.00 | 0.00 | 0.00 | 36 | 1011.0 |
| 20260508191042 | 67 | 217 | 5.2 | 12.2 | 0.00 | 0.00 | 0.00 | 35 | 1010.9 |
| 20260508190534 | 68 | 245 | 5.2 | 11.3 | 0.00 | 0.00 | 0.00 | 35 | 1010.8 |
| 20260508190030 | 68 | 232 | 4.3 | 12.2 | 0.00 | 0.00 | 0.00 | 35 | 1010.9 |
| 20260508185542 | 68 | 244 | 6.1 | 15.6 | 0.00 | 0.00 | 0.00 | 35 | 1011.0 |
| 20260508185041 | 69 | 274 | 5.2 | 15.6 | 0.00 | 0.00 | 0.00 | 34 | 1010.9 |
| 20260508184532 | 68 | 225 | 7.8 | 14.8 | 0.00 | 0.00 | 0.00 | 34 | 1011.1 |
| 20260508184028 | 69 | 265 | 3.5 | 14.8 | 0.00 | 0.00 | 0.00 | 35 | 1011.0 |
| 20260508183603 | 69 | 217 | 7.0 | 14.8 | 0.00 | 0.00 | 0.00 | 33 | 1011.1 |
| 20260508183038 | 69 | 245 | 4.3 | 13.9 | 0.00 | 0.00 | 0.00 | 34 | 1011.2 |
| 20260508182526 | 69 | 159 | 5.2 | 16.5 | 0.00 | 0.00 | 0.00 | 35 | 1011.5 |
| 20260508182105 | 70 | 232 | 7.0 | 19.1 | 0.00 | 0.00 | 0.00 | 33 | 1011.4 |
| 20260508181539 | 70 | 249 | 8.7 | 19.1 | 0.00 | 0.00 | 0.00 | 35 | 1011.5 |
| 20260508181032 | 70 | 246 | 5.2 | 14.8 | 0.00 | 0.00 | 0.00 | 35 | 1011.4 |
| 20260508180525 | 69 | 249 | 5.2 | 13.9 | 0.00 | 0.00 | 0.00 | 38 | 1011.5 |
| 20260508180045 | 68 | 238 | 7.0 | 13.9 | 0.00 | 0.00 | 0.00 | 39 | 1011.6 |
| 20260508175536 | 67 | 229 | 4.3 | 16.5 | 0.00 | 0.00 | 0.00 | 39 | 1011.6 |
| 20260508175034 | 67 | 231 | 3.5 | 16.5 | 0.00 | 0.00 | 0.00 | 39 | 1011.7 |
| 20260508174552 | 67 | 182 | 6.1 | 13.9 | 0.00 | 0.00 | 0.00 | 37 | 1011.7 |
| 20260508174050 | 67 | 297 | 4.3 | 11.3 | 0.00 | 0.00 | 0.00 | 39 | 1011.8 |
| 20260508173541 | 66 | 237 | 4.3 | 11.3 | 0.00 | 0.00 | 0.00 | 40 | 1011.9 |
| 20260508173034 | 66 | 234 | 5.2 | 14.8 | 0.00 | 0.00 | 0.00 | 37 | 1011.9 |
| 20260508172527 | 66 | 191 | 6.1 | 16.5 | 0.00 | 0.00 | 0.00 | 39 | 1012.0 |
| 20260508172043 | 67 | 248 | 6.1 | 12.2 | 0.00 | 0.00 | 0.00 | 38 | 1011.9 |
| 20260508171536 | 67 | 225 | 4.3 | 12.2 | 0.00 | 0.00 | 0.00 | 38 | 1012.3 |
| 20260508171028 | 68 | 208 | 6.1 | 16.5 | 0.00 | 0.00 | 0.00 | 38 | 1012.3 |
| 20260508170542 | 67 | 243 | 7.8 | 16.5 | 0.00 | 0.00 | 0.00 | 39 | 1012.4 |
| 20260508170037 | 67 | 254 | 5.2 | 12.2 | 0.00 | 0.00 | 0.00 | 40 | 1012.4 |
| 20260508165554 | 66 | 190 | 4.3 | 8.7 | 0.00 | 0.00 | 0.00 | 39 | 1012.5 |
| 20260508165027 | 66 | 232 | 4.3 | 13.9 | 0.00 | 0.00 | 0.00 | 40 | 1012.5 |
| 20260508164536 | 65 | 228 | 7.0 | 13.9 | 0.00 | 0.00 | 0.00 | 39 | 1012.6 |
| 20260508164030 | 65 | 207 | 3.5 | 14.8 | 0.00 | 0.00 | 0.00 | 41 | 1012.7 |
| 20260508163524 | 65 | 182 | 6.1 | 14.8 | 0.00 | 0.00 | 0.00 | 42 | 1012.8 |
| 20260508163045 | 63 | 223 | 5.2 | 13.0 | 0.00 | 0.00 | 0.00 | 43 | 1012.9 |
| 20260508162541 | 62 | 254 | 7.0 | 13.0 | 0.00 | 0.00 | 0.00 | 42 | 1012.9 |
| 20260508162044 | 62 | 218 | 7.0 | 13.0 | 0.00 | 0.00 | 0.00 | 41 | 1013.0 |
| 20260508161538 | 62 | 265 | 6.1 | 17.4 | 0.00 | 0.00 | 0.00 | 43 | 1012.9 |
| 20260508161033 | 61 | 250 | 9.6 | 17.4 | 0.00 | 0.00 | 0.00 | 42 | 1013.1 |
| 20260508160528 | 61 | 278 | 9.6 | 17.4 | 0.00 | 0.00 | 0.00 | 41 | 1013.1 |
| 20260508160047 | 62 | 209 | 4.3 | 16.5 | 0.00 | 0.00 | 0.00 | 40 | 1013.1 |
| 20260508155539 | 62 | 252 | 9.6 | 15.6 | 0.00 | 0.00 | 0.00 | 42 | 1013.3 |
| 20260508155044 | 62 | 244 | 9.6 | 15.6 | 0.00 | 0.00 | 0.00 | 41 | 1013.2 |
| 20260508154541 | 62 | 262 | 3.5 | 13.0 | 0.00 | 0.00 | 0.00 | 41 | 1013.3 |
| 20260508154044 | 62 | 245 | 6.1 | 14.8 | 0.00 | 0.00 | 0.00 | 42 | 1013.4 |
| 20260508153541 | 62 | 236 | 7.8 | 14.8 | 0.00 | 0.00 | 0.00 | 41 | 1013.3 |
| 20260508153041 | 62 | 223 | 6.1 | 13.9 | 0.00 | 0.00 | 0.00 | 40 | 1013.4 |
| 20260508152535 | 62 | 242 | 5.2 | 9.6 | 0.00 | 0.00 | 0.00 | 42 | 1013.3 |
| 20260508152026 | 62 | 279 | 4.3 | 12.2 | 0.00 | 0.00 | 0.00 | 43 | 1013.3 |
| 20260508151541 | 62 | 210 | 5.2 | 16.5 | 0.00 | 0.00 | 0.00 | 42 | 1013.4 |
| 20260508151103 | 63 | 227 | 6.1 | 17.4 | 0.00 | 0.00 | 0.00 | 40 | 1013.4 |
| 20260508150539 | 63 | 215 | 4.3 | 17.4 | 0.00 | 0.00 | 0.00 | 41 | 1013.5 |
| 20260508150034 | 62 | 255 | 5.2 | 18.2 | 0.00 | 0.00 | 0.00 | 41 | 1013.4 |
| 20260508145525 | 62 | 235 | 5.2 | 18.2 | 0.00 | 0.00 | 0.00 | 43 | 1013.4 |
| 20260508145045 | 62 | 211 | 8.7 | 15.6 | 0.00 | 0.00 | 0.00 | 42 | 1013.4 |
| 20260508144537 | 62 | 231 | 4.3 | 15.6 | 0.00 | 0.00 | 0.00 | 45 | 1013.4 |
| 20260508144033 | 62 | 215 | 4.3 | 14.8 | 0.00 | 0.00 | 0.00 | 44 | 1013.5 |
| 20260508143525 | 61 | 196 | 5.2 | 15.6 | 0.00 | 0.00 | 0.00 | 43 | 1013.5 |
| 20260508143044 | 61 | 229 | 5.2 | 15.6 | 0.00 | 0.00 | 0.00 | 42 | 1013.5 |
| 20260508142538 | 61 | 236 | 6.1 | 14.8 | 0.00 | 0.00 | 0.00 | 42 | 1013.4 |
| 20260508142041 | 60 | 236 | 6.1 | 15.6 | 0.00 | 0.00 | 0.00 | 44 | 1013.5 |
| 20260508141532 | 60 | 252 | 6.1 | 15.6 | 0.00 | 0.00 | 0.00 | 45 | 1013.5 |
| 20260508141052 | 59 | 238 | 7.0 | 13.0 | 0.00 | 0.00 | 0.00 | 45 | 1013.6 |
| 20260508140524 | 59 | 230 | 4.3 | 12.2 | 0.00 | 0.00 | 0.00 | 50 | 1013.7 |
| 20260508140039 | 58 | 223 | 3.5 | 14.8 | 0.00 | 0.00 | 0.00 | 54 | 1013.7 |
| 20260508135532 | 57 | 194 | 7.0 | 14.8 | 0.00 | 0.00 | 0.00 | 51 | 1013.7 |
| 20260508135027 | 57 | 209 | 4.3 | 11.3 | 0.00 | 0.00 | 0.00 | 53 | 1013.7 |
| 20260508134543 | 57 | 190 | 7.8 | 12.2 | 0.00 | 0.00 | 0.00 | 53 | 1013.9 |
| 20260508134041 | 56 | 206 | 3.5 | 8.7 | 0.00 | 0.00 | 0.00 | 54 | 1013.8 |
| 20260508133540 | 56 | 228 | 3.5 | 11.3 | 0.00 | 0.00 | 0.00 | 57 | 1013.8 |
| 20260508133040 | 55 | 198 | 6.1 | 11.3 | 0.00 | 0.00 | 0.00 | 53 | 1013.8 |
| 20260508132531 | 55 | 234 | 4.3 | 14.8 | 0.00 | 0.00 | 0.00 | 57 | 1013.8 |
| 20260508132027 | 54 | 244 | 3.5 | 14.8 | 0.00 | 0.00 | 0.00 | 58 | 1013.9 |
| 20260508131545 | 53 | 243 | 4.3 | 8.7 | 0.00 | 0.00 | 0.00 | 61 | 1014.1 |
| 20260508131044 | 53 | 184 | 6.1 | 10.4 | 0.00 | 0.00 | 0.00 | 60 | 1014.1 |
| 20260508130542 | 53 | 173 | 5.2 | 10.4 | 0.00 | 0.00 | 0.00 | 62 | 1014.1 |
| 20260508130057 | 52 | 174 | 4.3 | 7.8 | 0.00 | 0.00 | 0.00 | 61 | 1014.1 |
| 20260508125551 | 51 | 191 | 6.1 | 7.8 | 0.00 | 0.00 | 0.00 | 64 | 1014.2 |
| 20260508125026 | 50 | 144 | 5.2 | 8.7 | 0.00 | 0.00 | 0.00 | 64 | 1014.2 |
| 20260508124539 | 50 | 159 | 7.0 | 9.6 | 0.00 | 0.00 | 0.00 | 66 | 1014.2 |
| 20260508124042 | 49 | 167 | 6.1 | 8.7 | 0.00 | 0.00 | 0.00 | 66 | 1014.2 |
| 20260508123531 | 49 | 159 | 7.0 | 8.7 | 0.00 | 0.00 | 0.00 | 65 | 1014.2 |
| 20260508123027 | 49 | 146 | 5.2 | 8.7 | 0.00 | 0.00 | 0.00 | 67 | 1014.1 |
| 20260508122539 | 48 | 171 | 5.2 | 7.8 | 0.00 | 0.00 | 0.00 | 67 | 1014.2 |
| 20260508122042 | 48 | 162 | 5.2 | 7.8 | 0.00 | 0.00 | 0.00 | 67 | 1014.2 |
| 20260508121540 | 48 | 159 | 5.2 | 7.8 | 0.00 | 0.00 | 0.00 | 68 | 1014.2 |
| 20260508121034 | 48 | 161 | 6.1 | 6.1 | 0.00 | 0.00 | 0.00 | 68 | 1014.1 |
| 20260508120525 | 47 | 180 | 4.3 | 6.1 | 0.00 | 0.00 | 0.00 | 70 | 1014.1 |
| 20260508120044 | 47 | 180 | 5.2 | 6.1 | 0.00 | 0.00 | 0.00 | 70 | 1014.1 |
| 20260508115539 | 47 | 190 | 4.3 | 7.0 | 0.00 | 0.00 | 0.00 | 71 | 1014.0 |
| 20260508115035 | 46 | 183 | 5.2 | 7.0 | 0.00 | 0.00 | 0.00 | 70 | 1013.9 |
| 20260508114525 | 46 | 153 | 5.2 | 8.7 | 0.00 | 0.00 | 0.00 | 71 | 1013.7 |
| 20260508114044 | 45 | 153 | 6.1 | 7.0 | 0.00 | 0.00 | 0.00 | 71 | 1013.7 |
| 20260508113539 | 45 | 164 | 4.3 | 7.8 | 0.00 | 0.00 | 0.00 | 71 | 1013.7 |
| 20260508113041 | 44 | 169 | 5.2 | 6.1 | 0.00 | 0.00 | 0.00 | 72 | 1013.7 |
| 20260508112540 | 44 | 169 | 4.3 | 5.2 | 0.00 | 0.00 | 0.00 | 73 | 1013.7 |
| 20260508112034 | 43 | 169 | 5.2 | 6.1 | 0.00 | 0.00 | 0.00 | 73 | 1013.5 |
| 20260508111527 | 43 | 166 | 3.5 | 5.2 | 0.00 | 0.00 | 0.00 | 75 | 1013.4 |
| 20260508111045 | 42 | 167 | 2.6 | 5.2 | 0.00 | 0.00 | 0.00 | 75 | 1013.5 |
| 20260508110537 | 42 | 167 | 2.6 | 5.2 | 0.00 | 0.00 | 0.00 | 75 | 1013.5 |
| 20260508110040 | 42 | 162 | 2.6 | 6.1 | 0.00 | 0.00 | 0.00 | 75 | 1013.4 |
| 20260508105533 | 42 | 147 | 2.6 | 7.8 | 0.00 | 0.00 | 0.00 | 75 | 1013.4 |
| 20260508105028 | 41 | 143 | 4.3 | 7.8 | 0.00 | 0.00 | 0.00 | 75 | 1013.4 |
| 20260508104545 | 41 | 136 | 3.5 | 6.1 | 0.00 | 0.00 | 0.00 | 76 | 1013.2 |
| 20260508104044 | 41 | 150 | 3.5 | 4.3 | 0.00 | 0.00 | 0.00 | 76 | 1013.2 |
| 20260508103542 | 41 | 139 | 2.6 | 5.2 | 0.00 | 0.00 | 0.00 | 76 | 1013.2 |
| 20260508103041 | 41 | 148 | 3.5 | 6.1 | 0.00 | 0.00 | 0.00 | 76 | 1013.0 |
| 20260508102539 | 41 | 140 | 3.5 | 6.1 | 0.00 | 0.00 | 0.00 | 76 | 1013.0 |
| 20260508102036 | 41 | 146 | 3.5 | 5.2 | 0.00 | 0.00 | 0.00 | 76 | 1013.0 |
| 20260508101554 | 41 | 153 | 2.6 | 5.2 | 0.00 | 0.00 | 0.00 | 76 | 1013.0 |
| 20260508101027 | 41 | 142 | 2.6 | 4.3 | 0.00 | 0.00 | 0.00 | 76 | 1013.0 |
| 20260508100541 | 41 | 152 | 2.6 | 4.3 | 0.00 | 0.00 | 0.00 | 76 | 1013.0 |
| 20260508100040 | 41 | 148 | 2.6 | 5.2 | 0.00 | 0.00 | 0.00 | 76 | 1012.9 |
| 20260508095539 | 41 | 161 | 2.6 | 5.2 | 0.00 | 0.00 | 0.00 | 76 | 1012.9 |
| 20260508095040 | 41 | 142 | 2.6 | 5.2 | 0.00 | 0.00 | 0.00 | 76 | 1012.8 |
| 20260508094534 | 42 | 155 | 1.7 | 6.1 | 0.00 | 0.00 | 0.00 | 75 | 1012.7 |
| 20260508094056 | 42 | 153 | 2.6 | 6.1 | 0.00 | 0.00 | 0.00 | 75 | 1012.6 |
| 20260508093527 | 42 | 136 | 2.6 | 4.3 | 0.00 | 0.00 | 0.00 | 75 | 1012.6 |
| 20260508093026 | 42 | 140 | 1.7 | 2.6 | 0.00 | 0.00 | 0.00 | 75 | 1012.6 |
| 20260508092557 | 42 | 140 | 1.7 | 3.5 | 0.00 | 0.00 | 0.00 | 74 | 1012.7 |
| 20260508092036 | 43 | 144 | 1.7 | 3.5 | 0.00 | 0.00 | 0.00 | 74 | 1012.7 |
| 20260508091529 | 43 | 144 | 1.7 | 3.5 | 0.00 | 0.00 | 0.00 | 74 | 1012.7 |
| 20260508091048 | 43 | 144 | 1.7 | 3.5 | 0.00 | 0.00 | 0.00 | 74 | 1012.7 |
| 20260508090547 | 43 | 141 | 2.6 | 3.5 | 0.00 | 0.00 | 0.00 | 74 | 1012.7 |
| 20260508090042 | 43 | 148 | 1.7 | 2.6 | 0.00 | 0.00 | 0.00 | 74 | 1012.8 |
| 20260508085541 | 43 | 140 | 0.9 | 2.6 | 0.00 | 0.00 | 0.00 | 74 | 1012.9 |
| 20260508085043 | 43 | 135 | 0.9 | 2.6 | 0.00 | 0.00 | 0.00 | 73 | 1012.9 |
| 20260508084541 | 43 | 135 | 1.7 | 2.6 | 0.00 | 0.00 | 0.00 | 73 | 1012.8 |
| 20260508084038 | 43 | 135 | 0.9 | 1.7 | 0.00 | 0.00 | 0.00 | 71 | 1012.8 |
| 20260508083533 | 44 | 135 | 0.0 | 1.7 | 0.00 | 0.00 | 0.00 | 71 | 1012.7 |
| 20260508083027 | 44 | 135 | 0.0 | 2.6 | 0.00 | 0.00 | 0.00 | 70 | 1012.7 |
| 20260508082536 | 44 | 135 | 1.7 | 2.6 | 0.00 | 0.00 | 0.00 | 70 | 1012.7 |
| 20260508082029 | 45 | 140 | 1.7 | 3.5 | 0.00 | 0.00 | 0.00 | 69 | 1012.7 |
| 20260508081544 | 45 | 137 | 1.7 | 3.5 | 0.00 | 0.00 | 0.00 | 69 | 1012.6 |
| 20260508081045 | 45 | 129 | 0.9 | 2.6 | 0.00 | 0.00 | 0.00 | 68 | 1012.5 |
| 20260508080537 | 45 | 129 | 0.9 | 2.6 | 0.00 | 0.00 | 0.00 | 67 | 1012.5 |
| 20260508075532 | 46 | 10 | 1.7 | 2.6 | 0.00 | 0.00 | 0.00 | 66 | 1012.5 |
| 20260508075028 | 46 | 10 | 0.0 | 0.0 | 0.00 | 0.00 | 0.00 | 66 | 1012.5 |
| 20260508074539 | 46 | 10 | 0.0 | 0.0 | 0.00 | 0.00 | 0.00 | 65 | 1012.4 |
| 20260508074044 | 46 | 10 | 0.0 | 1.7 | 0.00 | 0.00 | 0.00 | 65 | 1012.5 |
| 20260508073539 | 47 | 10 | 0.9 | 2.6 | 0.00 | 0.00 | 0.00 | 64 | 1012.4 |
| 20260508073042 | 47 | 10 | 0.9 | 2.6 | 0.00 | 0.00 | 0.00 | 62 | 1012.5 |
| 20260508072536 | 47 | 10 | 0.0 | 0.0 | 0.00 | 0.00 | 0.00 | 62 | 1012.4 |
| 20260508072033 | 48 | 10 | 0.0 | 2.6 | 0.00 | 0.00 | 0.00 | 62 | 1012.5 |
| 20260508071524 | 48 | 10 | 0.9 | 2.6 | 0.00 | 0.00 | 0.00 | 62 | 1012.4 |
| 20260508071043 | 48 | 10 | 0.0 | 0.0 | 0.00 | 0.00 | 0.00 | 61 | 1012.4 |
| 20260508070540 | 48 | 10 | 0.0 | 0.0 | 0.00 | 0.00 | 0.00 | 61 | 1012.4 |
| 20260508070035 | 48 | 10 | 0.0 | 0.0 | 0.00 | 0.00 | 0.00 | 60 | 1012.4 |
| 20260508065529 | 48 | 10 | 0.0 | 1.7 | 0.00 | 0.00 | 0.00 | 59 | 1012.4 |
| 20260508065025 | 49 | 10 | 0.9 | 1.7 | 0.00 | 0.00 | 0.00 | 57 | 1012.4 |
| 20260508064539 | 49 | 10 | 0.0 | 1.7 | 0.00 | 0.00 | 0.00 | 56 | 1012.3 |
| 20260508064039 | 49 | 10 | 0.0 | 1.7 | 0.00 | 0.00 | 0.00 | 55 | 1012.4 |
| 20260508063559 | 50 | 10 | 0.0 | 0.9 | 0.00 | 0.00 | 0.00 | 56 | 1012.5 |
| 20260508063058 | 50 | 10 | 0.0 | 1.7 | 0.00 | 0.00 | 0.00 | 54 | 1012.4 |
| 20260508062531 | 50 | 10 | 0.0 | 1.7 | 0.00 | 0.00 | 0.00 | 53 | 1012.4 |
| 20260508062025 | 51 | 10 | 0.0 | 2.6 | 0.00 | 0.00 | 0.00 | 54 | 1012.5 |
| 20260508061602 | 51 | 10 | 0.9 | 2.6 | 0.00 | 0.00 | 0.00 | 53 | 1012.4 |
| 20260508061041 | 51 | 10 | 0.9 | 4.3 | 0.00 | 0.00 | 0.00 | 52 | 1012.4 |
| 20260508060559 | 51 | 10 | 0.9 | 5.2 | 0.00 | 0.00 | 0.00 | 52 | 1012.4 |
| 20260508060041 | 51 | 343 | 1.7 | 9.6 | 0.00 | 0.00 | 0.00 | 51 | 1012.3 |
| 20260508055535 | 52 | 330 | 3.5 | 9.6 | 0.00 | 0.00 | 0.00 | 51 | 1012.3 |
| 20260508055031 | 52 | 313 | 2.6 | 5.2 | 0.00 | 0.00 | 0.00 | 51 | 1012.3 |
| 20260508054524 | 52 | 332 | 2.6 | 7.0 | 0.00 | 0.00 | 0.00 | 51 | 1012.3 |
| 20260508054045 | 53 | 310 | 1.7 | 7.0 | 0.00 | 0.00 | 0.00 | 51 | 1012.3 |
| 20260508053543 | 53 | 315 | 2.6 | 8.7 | 0.00 | 0.00 | 0.00 | 50 | 1012.3 |
| 20260508053103 | 53 | 306 | 3.5 | 13.9 | 0.00 | 0.00 | 0.00 | 49 | 1012.3 |
| 20260508052540 | 53 | 339 | 5.2 | 13.9 | 0.00 | 0.00 | 0.00 | 48 | 1012.2 |
| 20260508052040 | 53 | 300 | 4.3 | 13.9 | 0.00 | 0.00 | 0.00 | 49 | 1012.2 |
| 20260508051534 | 53 | 336 | 7.8 | 13.9 | 0.00 | 0.00 | 0.00 | 49 | 1012.1 |
| 20260508051026 | 53 | 296 | 7.8 | 13.9 | 0.00 | 0.00 | 0.00 | 50 | 1012.2 |
| 20260508050544 | 53 | 342 | 4.3 | 7.8 | 0.00 | 0.00 | 0.00 | 50 | 1012.2 |
| 20260508050105 | 53 | 302 | 3.5 | 7.8 | 0.00 | 0.00 | 0.00 | 51 | 1012.2 |
| 20260508045601 | 54 | 298 | 4.3 | 11.3 | 0.00 | 0.00 | 0.00 | 50 | 1012.2 |
| 20260508045100 | 54 | 330 | 7.0 | 11.3 | 0.00 | 0.00 | 0.00 | 49 | 1012.0 |
| 20260508044534 | 54 | 319 | 5.2 | 10.4 | 0.00 | 0.00 | 0.00 | 49 | 1011.9 |
| 20260508044031 | 54 | 340 | 2.6 | 7.0 | 0.00 | 0.00 | 0.00 | 49 | 1011.7 |
| 20260508043525 | 54 | 310 | 1.7 | 10.4 | 0.00 | 0.00 | 0.00 | 49 | 1011.7 |
| 20260508043103 | 54 | 313 | 4.3 | 10.4 | 0.00 | 0.00 | 0.00 | 47 | 1011.6 |
| 20260508042535 | 54 | 306 | 4.3 | 10.4 | 0.00 | 0.00 | 0.00 | 47 | 1011.4 |
| 20260508042056 | 55 | 292 | 2.6 | 7.0 | 0.00 | 0.00 | 0.00 | 47 | 1011.3 |
| 20260508041529 | 55 | 321 | 3.5 | 7.0 | 0.00 | 0.00 | 0.00 | 46 | 1011.3 |
| 20260508041027 | 55 | 315 | 2.6 | 7.0 | 0.00 | 0.00 | 0.00 | 46 | 1011.2 |
| 20260508040544 | 55 | 329 | 3.5 | 7.0 | 0.00 | 0.00 | 0.00 | 46 | 1011.2 |
| 20260508040039 | 55 | 298 | 2.6 | 12.2 | 0.00 | 0.00 | 0.00 | 45 | 1011.1 |
| 20260508035541 | 56 | 308 | 4.3 | 12.2 | 0.00 | 0.00 | 0.00 | 45 | 1011.0 |
| 20260508035042 | 56 | 279 | 5.2 | 12.2 | 0.00 | 0.00 | 0.00 | 43 | 1010.9 |
| 20260508034533 | 56 | 288 | 4.3 | 11.3 | 0.00 | 0.00 | 0.00 | 43 | 1010.8 |
| 20260508034027 | 56 | 271 | 6.1 | 12.2 | 0.00 | 0.00 | 0.00 | 44 | 1010.8 |
| 20260508033544 | 56 | 295 | 7.0 | 13.0 | 0.00 | 0.00 | 0.00 | 43 | 1010.7 |
| 20260508033041 | 56 | 221 | 5.2 | 13.0 | 0.00 | 0.00 | 0.00 | 44 | 1010.6 |
| 20260508032541 | 56 | 281 | 5.2 | 13.0 | 0.00 | 0.00 | 0.00 | 44 | 1010.6 |
| 20260508032040 | 56 | 310 | 4.3 | 9.6 | 0.00 | 0.00 | 0.00 | 44 | 1010.6 |
| 20260508031530 | 55 | 288 | 4.3 | 10.4 | 0.00 | 0.00 | 0.00 | 44 | 1010.5 |
| 20260508031026 | 55 | 288 | 3.5 | 10.4 | 0.00 | 0.00 | 0.00 | 45 | 1010.4 |
| 20260508030543 | 55 | 264 | 4.3 | 9.6 | 0.00 | 0.00 | 0.00 | 45 | 1010.4 |
| 20260508030044 | 55 | 278 | 3.5 | 7.0 | 0.00 | 0.00 | 0.00 | 46 | 1010.4 |
| 20260508025541 | 55 | 256 | 3.5 | 6.1 | 0.00 | 0.00 | 0.00 | 46 | 1010.3 |
| 20260508025042 | 55 | 271 | 3.5 | 6.1 | 0.00 | 0.00 | 0.00 | 47 | 1010.3 |
| 20260508024538 | 55 | 258 | 2.6 | 5.2 | 0.00 | 0.00 | 0.00 | 47 | 1010.4 |
| 20260508024039 | 56 | 251 | 2.6 | 5.2 | 0.00 | 0.00 | 0.00 | 45 | 1010.3 |
| 20260508023533 | 56 | 265 | 1.7 | 5.2 | 0.00 | 0.00 | 0.00 | 47 | 1010.3 |
| 20260508023027 | 56 | 221 | 1.7 | 6.1 | 0.00 | 0.00 | 0.00 | 45 | 1010.2 |
| 20260508022543 | 56 | 261 | 2.6 | 6.1 | 0.00 | 0.00 | 0.00 | 46 | 1010.3 |
| 20260508022041 | 56 | 257 | 2.6 | 4.3 | 0.00 | 0.00 | 0.00 | 46 | 1010.2 |
| 20260508021530 | 56 | 252 | 2.6 | 5.2 | 0.00 | 0.00 | 0.00 | 45 | 1010.2 |
| 20260508021048 | 57 | 247 | 2.6 | 3.5 | 0.00 | 0.00 | 0.00 | 46 | 1010.2 |
| 20260508020542 | 57 | 254 | 1.7 | 5.2 | 0.00 | 0.00 | 0.00 | 46 | 1010.1 |
| 20260508020042 | 57 | 257 | 2.6 | 6.1 | 0.00 | 0.00 | 0.00 | 46 | 1010.0 |
| 20260508015539 | 57 | 251 | 2.6 | 6.1 | 0.00 | 0.00 | 0.00 | 45 | 1010.0 |
| 20260508015035 | 57 | 269 | 1.7 | 2.6 | 0.00 | 0.00 | 0.00 | 46 | 1010.0 |
| 20260508014525 | 58 | 269 | 0.9 | 2.6 | 0.00 | 0.00 | 0.00 | 45 | 1010.0 |
| 20260508014043 | 58 | 269 | 0.9 | 3.5 | 0.00 | 0.00 | 0.00 | 44 | 1009.9 |
| 20260508013600 | 58 | 269 | 0.9 | 3.5 | 0.00 | 0.00 | 0.00 | 47 | 1009.8 |
| 20260508013035 | 58 | 279 | 1.7 | 3.5 | 0.00 | 0.00 | 0.00 | 45 | 1009.7 |
| 20260508012527 | 59 | 273 | 1.7 | 3.5 | 0.00 | 0.00 | 0.00 | 45 | 1009.6 |
| 20260508012045 | 59 | 277 | 0.9 | 4.3 | 0.00 | 0.00 | 0.00 | 45 | 1009.6 |
| 20260508011541 | 59 | 275 | 2.6 | 4.3 | 0.00 | 0.00 | 0.00 | 43 | 1009.5 |
| 20260508011038 | 59 | 258 | 2.6 | 3.5 | 0.00 | 0.00 | 0.00 | 41 | 1009.5 |
| 20260508010540 | 60 | 257 | 1.7 | 3.5 | 0.00 | 0.00 | 0.00 | 42 | 1009.4 |
| 20260508010059 | 60 | 250 | 0.9 | 3.5 | 0.00 | 0.00 | 0.00 | 41 | 1009.2 |
| 20260508005533 | 60 | 279 | 0.9 | 3.5 | 0.00 | 0.00 | 0.00 | 41 | 1009.2 |
| 20260508005024 | 61 | 264 | 0.9 | 3.5 | 0.00 | 0.00 | 0.00 | 41 | 1009.1 |
| 20260508004540 | 61 | 263 | 1.7 | 3.5 | 0.00 | 0.00 | 0.00 | 40 | 1009.1 |
| 20260508004037 | 61 | 282 | 1.7 | 3.5 | 0.00 | 0.00 | 0.00 | 40 | 1009.0 |
| 20260508003531 | 61 | 289 | 1.7 | 4.3 | 0.00 | 0.00 | 0.00 | 40 | 1009.0 |
| 20260508003049 | 62 | 299 | 2.6 | 7.0 | 0.00 | 0.00 | 0.00 | 39 | 1008.9 |
| 20260508002540 | 62 | 259 | 3.5 | 7.8 | 0.00 | 0.00 | 0.00 | 38 | 1008.8 |
| 20260508002033 | 62 | 254 | 1.7 | 8.7 | 0.00 | 0.00 | 0.00 | 38 | 1008.8 |
| 20260508001525 | 62 | 279 | 5.2 | 9.6 | 0.00 | 0.00 | 0.00 | 38 | 1008.7 |
| 20260508001105 | 63 | 241 | 6.1 | 9.6 | 0.00 | 0.00 | 0.00 | 37 | 1008.7 |
| 20260508000541 | 63 | 269 | 4.3 | 8.7 | 0.00 | 0.00 | 0.00 | 38 | 1008.6 |
| 20260508000041 | 63 | 288 | 1.7 | 7.8 | 0.00 | 0.00 | 0.00 | 38 | 1008.5 |
| 20260507235533 | 63 | 310 | 3.5 | 7.0 | 0.00 | 0.00 | 0.00 | 38 | 1008.4 |
| 20260507235024 | 64 | 303 | 2.6 | 8.7 | 0.00 | 0.00 | 0.00 | 38 | 1008.4 |
| 20260507234542 | 64 | 280 | 4.3 | 8.7 | 0.00 | 0.00 | 0.00 | 35 | 1008.4 |
| 20260507234059 | 64 | 296 | 3.5 | 9.6 | 0.00 | 0.00 | 0.00 | 36 | 1008.4 |
| 20260507233526 | 64 | 319 | 6.1 | 9.6 | 0.00 | 0.00 | 0.00 | 36 | 1008.3 |
| 20260507233044 | 65 | 271 | 4.3 | 9.6 | 0.00 | 0.00 | 0.00 | 35 | 1008.4 |
| 20260507232534 | 65 | 261 | 4.3 | 8.7 | 0.00 | 0.00 | 0.00 | 35 | 1008.3 |
| 20260507232027 | 65 | 268 | 4.3 | 12.2 | 0.00 | 0.00 | 0.00 | 34 | 1008.2 |
| 20260507231604 | 66 | 275 | 6.1 | 13.0 | 0.00 | 0.00 | 0.00 | 33 | 1008.2 |
| 20260507231103 | 66 | 309 | 7.0 | 13.0 | 0.00 | 0.00 | 0.00 | 33 | 1008.1 |
| 20260507230534 | 66 | 326 | 6.1 | 19.1 | 0.00 | 0.00 | 0.00 | 34 | 1008.0 |
| 20260507230029 | 66 | 313 | 8.7 | 19.1 | 0.00 | 0.00 | 0.00 | 33 | 1008.0 |
| 20260507225605 | 66 | 321 | 4.3 | 13.0 | 0.00 | 0.00 | 0.00 | 34 | 1007.8 |